Location: Greenwich
(51.4790°N, 0.0090°E)
Time: 12:09:28
(UTC+00:00)

Tiangong - Visible Passes

Search period start: 29 November 2022 00:00
Search period end: 09 December 2022 00:00
Orbit: 385 x 393 km, 41.5° (Epoch: 29 November)

Date Brightness Start Highest point End Pass type
(mag) Time Alt. Az. Time Alt. Az. Time Alt. Az.
02 Dec 0.7 18:20:41 10° SSW 18:21:23 12° S 18:21:23 12° S visible
03 Dec 0.7 17:23:39 10° S 17:24:07 10° SSE 17:24:34 10° SSE visible
04 Dec 0.4 18:00:27 10° SSW 18:02:11 14° S 18:02:41 13° SSE visible
05 Dec 0.6 17:02:39 10° SSW 17:04:07 13° S 17:05:34 10° SE visible
05 Dec 0.8 18:38:38 10° SW 18:39:27 12° SSW 18:39:27 12° SSW visible
06 Dec 0.6 17:40:22 10° SW 17:42:08 14° S 17:43:54 10° SSE visible
07 Dec 0.6 16:42:15 10° SSW 16:43:59 14° S 16:45:43 10° SE visible
07 Dec 0.8 18:19:04 10° SSW 18:20:06 11° SSW 18:20:43 11° S visible
08 Dec 0.7 17:20:22 10° SW 17:21:55 13° S 17:23:29 10° SSE visible
